Location: Newark
(48.8604°N, 2.3376°E)
Time: 02:06:54
(UTC+00:00)

RS-15 - Visible Passes

Search period start: 29 November 2021 00:00
Search period end: 09 December 2021 00:00
Orbit: 1883 x 2161 km, 64.8° (Epoch: 28 November)

Date Brightness Start Highest point End Pass type
(mag) Time Alt. Az. Time Alt. Az. Time Alt. Az.
29 Nov 10.1 01:19:18 10° ESE 01:22:16 11° E 01:25:17 10° ENE visible
29 Nov 8.6 03:20:36 10° S 03:31:24 52° ESE 03:42:49 10° NE visible
29 Nov 8.1 05:32:13 10° WSW 05:43:44 64° NW 05:55:55 10° NE visible
30 Nov 8.9 02:48:18 20° SSE 02:55:44 41° ESE 03:06:31 10° NE visible
30 Nov 8.0 04:56:14 11° SW 05:07:26 74° NW 05:19:41 10° NE visible
01 Dec 9.2 02:15:14 24° SE 02:20:12 32° ESE 02:30:05 10° NE visible
01 Dec 8.0 04:23:07 24° SW 04:31:16 86° NW 04:43:31 10° NE visible
01 Dec 8.5 06:34:25 10° W 06:45:32 44° NNW 06:57:08 10° NE visible
02 Dec 9.4 01:41:46 22° ESE 01:44:45 24° E 01:53:24 10° NE visible
02 Dec 8.0 03:49:37 38° SSW 03:55:13 80° ESE 04:07:22 10° NE visible
02 Dec 8.4 05:57:38 10° W 06:08:53 48° NNW 06:20:40 10° NE visible
03 Dec 9.6 01:08:02 17° ESE 01:09:27 18° E 01:16:19 10° ENE visible
03 Dec 8.2 03:15:53 50° S 03:19:17 67° ESE 03:31:11 10° NE visible
03 Dec 8.2 05:23:43 20° WSW 05:32:20 54° NNW 05:44:19 10° NE visible
04 Dec 9.9 00:34:08 12° E 00:34:15 12° E 00:38:04 10° ENE visible
04 Dec 8.4 02:41:57 51° SE 02:43:29 54° ESE 02:54:58 10° NE visible
04 Dec 8.1 04:49:46 33° WSW 04:55:54 62° NW 05:08:03 10° NE visible
05 Dec 8.7 02:07:53 43° ESE 02:07:53 43° ESE 02:18:41 10° NE visible
05 Dec 8.0 04:15:41 49° WSW 04:19:35 73° NW 04:31:51 10° NE visible
05 Dec 8.6 06:23:31 10° W 06:34:29 40° NNW 06:45:53 10° NE visible
06 Dec 9.1 01:33:42 33° E 01:33:42 33° E 01:42:16 10° NE visible
06 Dec 7.9 03:41:31 69° SW 03:43:23 85° NW 03:55:40 10° NE visible
06 Dec 8.5 05:49:18 19° W 05:57:44 43° NNW 06:09:19 10° NE visible
07 Dec 9.4 00:59:27 24° E 00:59:27 24° E 01:05:39 10° NE visible
07 Dec 7.9 03:07:14 82° SE 03:07:19 82° SE 03:19:30 10° NE visible
07 Dec 8.4 05:15:02 29° W 05:21:05 47° NNW 05:32:51 10° NE visible
08 Dec 9.8 00:25:06 16° ENE 00:25:06 16° ENE 00:28:38 10° ENE visible
08 Dec 8.2 02:32:54 64° E 02:32:54 64° E 02:43:20 10° NE visible
08 Dec 8.2 04:40:41 42° W 04:44:31 53° NNW 04:56:30 10° NE visible
08 Dec 8.8 06:49:26 10° WNW 07:00:23 38° N 07:11:37 10° ENE visible
